Regional Weather Roundup
Issued by NWS

Home | Current Version | Previous Version | Graphics & Text | Print | Product List | Glossary On
Versions: 1 2 3 4 5 6 7 8 9 10 11 12 13 14 15 16 17 18 19 20 21 22 23 24 25 26 27 28 29 30 31 32 33 34 35 36 37 38 39 40 41 42 43 44 45 46 47 48 49 50
000
ASUS43 KDTX 031510
RWRMI
MICHIGAN HOURLY REGIONAL WEATHER ROUNDUP
NATIONAL WEATHER SERVICE DETROIT/PONTIAC MI
1000 AM EST TUE MAR 03 2015

NOTE: "FAIR" INDICATES FEW OR NO CLOUDS BELOW 12,000 FEET WITH NO
SIGNIFICANT WEATHER AND/OR OBSTRUCTION TO VISIBILITY.

MIZ047>049-052>055-059>063-066>070-074>076-081>083-031600-
SOUTHEAST LOWER MICHIGAN

CITY           SKY/WX    TMP DP  RH WIND       PRES   REMARKS
ADRIAN         FRZ RAIN  22  19  89 SE13      29.99F FOG     WCI  10
ALMA           LGT SNOW  23  21  94 SE10      29.94F VSB 1   WCI  12
ANN ARBOR      LGT SNOW  22  19  89 SE14      30.00F FOG     WCI   9
BAD AXE        LGT SNOW  21  19  90 S14       30.03F VSB 3/4 WCI   8
CARO           SNOW      22  19  89 SE7       30.00F VSB 1/2 WCI  14
DETROIT CITY   SNOW      23  19  85 SE12      30.06F VSB 1/4 WCI  12
DETROIT        LGTSLEET  23  19  86 SE10      30.05F WCI  12
FLINT          LGT SNOW  24  18  77 SE13      29.97F VSB 1   WCI  12
GROSSE ILE     LGT SNOW  23  19  86 SE9       30.04F WCI  13
HILLSDALE      MIX PCPN  23  20  87 SE13G21   29.91F WCI  11
HOWELL         SNOW      21  19  93 SE13      29.96F VSB 1/4 WCI   8

CITY           SKY/WX    TMP DP  RH WIND       PRES   REMARKS
JACKSON        FRZ RAIN  23  20  88 SE18      29.94F FOG     WCI   9
LAMBERTVILLE   LGT SNOW  27  21  80 E8        30.03F WCI  18
LANSING        LGT SNOW  22  18  85 SE17      29.95F VSB 3/4 WCI   8
LAPEER         SNOW      21  19  91 SE9       30.01F VSB 1/4 WCI  11
MASON          LGT SNOW  22  18  86 SE10      29.94F WCI  11
MONROE         LGT SNOW  25  21  86 SE10      30.03F WCI  15
MT. CLEMENS    LGT SNOW  21  19  93 SE13      30.03F VSB 5/8 WCI   9
PONTIAC        SNOW      21  18  88 SE12      29.99F VSB 1/2 WCI   9
PORT HOPE        N/A     22  17  81 S9G17     30.02F WCI  12
PORT HURON     SNOW      21  19  93 SE8       30.08F VSB 1/2 WCI  12
TRI CITIES     SNOW      24  19  81 SE14      29.96F VSB 1/4 WCI  12
TROY           SNOW      24  21  87 SE5       30.05F VSB 1/2 WCI  19
SAGINAW HB     LGT SNOW  23  23 100 SE12      29.98F VSB 3/4 WCI  12
$$
MIZ043>046-050>051-056>058-064>065-071>073-077>080-031600-
SOUTHWEST LOWER MICHIGAN

CITY           SKY/WX    TMP DP  RH WIND       PRES   REMARKS
BATTLE CREEK   FRZ RAIN  25  20  81 SE13G23   29.90F WCI  14
BENTON HARBOR  FRZ RAIN  26  23  88 SE15G21   29.85F FOG     WCI  14
BIG RAPIDS     LGT SNOW  23  22  94 S12       29.87F WCI  12
COLDWATER      MIX PCPN  24  19  83 SE14      29.92F WCI  11
FREMONT        LGT SNOW  23  21  90 SE12      29.85F VSB 3/4 WCI  12
HOLLAND        LGT SNOW  25  21  85 SE12      29.85F FOG     WCI  14
GRAND RAPIDS   SNOW      22  19  89 SE12      29.90F VSB 1/2 WCI  10
IONIA          SNOW      23  21  91 SE15      29.91F VSB 1/2 WCI  10
KALAMAZOO      FRZ RAIN  25  21  85 SE16G22   29.89F WCI  12
LUDINGTON      LGT SNOW  24  20  84 SE8       29.83F WCI  16
MARSHALL       LGT SNOW  23  20  87 SE13      29.91F WCI  11
MOUNT PLEASANT LGT SNOW  23  20  90 SE12      29.92F VSB 3/4 WCI  11
MUSKEGON       SNOW      24  21  88 SE16      29.83F VSB 1/4 WCI  11
SOUTH HAVEN    LGT SNOW  28  24  87 S13G18    29.86F WCI  17
$$
MIZ016>042-031600-
NORTHERN LOWER MICHIGAN

CITY           SKY/WX    TMP DP  RH WIND       PRES   REMARKS
ALPENA         LGT SNOW  20  17  88 S8        29.97F VSB 3/4 WCI  10
BEAVER ISLAND  CLOUDY    23  18  79 S7G18     29.84F WCI  15
BELLAIRE       LGT SNOW  24  19  78 S13G23    29.88F WCI  13
CADILLAC       LGT SNOW  20  17  87 SE9       29.83F WCI   9
CHARLEVOIX     CLOUDY    24  17  75 CALM      29.89F
FRANKFORT      LGT SNOW  23  21  91 SE9       29.83F VSB 1   WCI  13
GAYLORD        LGT SNOW  20  16  84 S15       29.85F FOG     WCI   6
GRAYLING       LGT SNOW  21  18  88 SE9G18    29.88F VSB 1   WCI  10
HARBOR SPRINGS CLOUDY    22  17  79 E5        29.87F WCI  16
HOUGHTON LAKE  SNOW      20  16  84 SE10      29.87F VSB 1/2 WCI   9
MANISTEE       CLOUDY    23  18  80 SE8       29.84F WCI  14
OSCODA         LGT SNOW  24  20  83 S13G20    29.98F WCI  13
PELLSTON       CLOUDY    19  15  84 SE10      29.88F WCI   7
ROGERS CITY    LGT SNOW  20  19  93 S8        29.96F WCI  11
TRAVERSE CITY  LGT SNOW  24  19  81 SE6       29.86F WCI  17
$$
MIZ007>008-015-031600-
EASTERN UPPER MICHIGAN

CITY           SKY/WX    TMP DP  RH WIND       PRES   REMARKS
KINROSS        CLOUDY    18  16  93 SE10      29.87F WCI   6
MACKINAC ISLAN LGT SNOW  19  15  86 SE12G17   29.87F WCI   6
NEWBERRY       CLOUDY    19  18  93 S14       29.82F WCI   6
S. S. MARIE    LGT SNOW  14  10  84 VRB6      29.89F VSB 1   WCI   5
MUNISING         N/A     25  17  72 S6        29.76F WCI  18
$$
MIZ004>006-011>014-085-031600-
CENTRAL UPPER MICHIGAN

CITY           SKY/WX    TMP DP  RH WIND       PRES   REMARKS
MANISTIQUE     CLOUDY    24  23  97 SE12      29.81F WCI  12
ESCANABA       CLOUDY    23  19  86 SE5       29.78F WCI  17
MENOMINEE      CLOUDY    27  23  86 S9        29.75F VSB 1   WCI  17
SAWYER-GWINN   CLOUDY    19  16  86 S7        29.72F WCI  10
$$
MIZ001>003-009>011-084-031600-
WESTERN UPPER MICHIGAN

CITY           SKY/WX    TMP DP  RH WIND       PRES   REMARKS
IRON MOUNTAIN  CLOUDY    20  16  84 SE8       29.71F FOG     WCI  10
HOUGHTON       LGT SNOW  20  16  84 S12       29.66F VSB 1   WCI   8
COPPER HARBOR    N/A     21  16  81 VRB7G16   29.69F WCI  12
IRONWOOD       CLOUDY    21  16  79 S8        29.64F WCI  12
$$

ABBREVIATIONS USED IN REMARKS
   TC - TEMPERATURE IN CELSIUS
  WCI - WIND CHILL INDEX
   HX - HEAT INDEX
  VSB - VISIBILITY




USA.gov is the U.S. government's official web portal to all federal, state and local government web resources and services.